Theta_e
333 333 333 335 335 336 338 340 343 344 345 348 349 351 354 357 358 354 354 356 356 354 352 357 360 359 365 364 362 361 361 356 352
333 333 334 335 336 336 338 340 342 344 346 347 348 349 355 357 357 356 356 358 359 357 361 360 362 361 364 363 362 361 359 353 349
334 336 335 335 335 335 337 339 341 344 346 346 348 349 352 352 356 358 358 358 359 360 361 363 363 363 364 362 361 360 357 351 347
334 336 337 337 337 336 338 339 340 342 345 347 348 350 355 356 355 355 356 356 359 360 362 364 364 365 365 362 360 360 356 353 347
334 337 338 339 339 338 338 339 343 345 347 347 350 355 357 354 354 355 353 355 358 362 363 365 365 366 364 362 360 359 355 351 347
333 336 337 338 339 338 339 340 343 348 351 352 352 354 351 351 352 352 352 354 356 359 362 364 363 365 364 361 360 356 354 352 348
334 335 338 338 339 341 344 347 350 351 348 350 353 350 350 352 352 354 353 357 359 356 362 363 361 362 364 361 359 355 352 350 347
337 336 335 336 338 341 343 344 347 349 349 352 352 353 354 356 358 359 360 362 362 359 360 361 362 361 361 360 356 351 348 347 346
345 348 350 349 340 339 340 342 345 348 351 354 354 354 354 359 361 362 362 364 363 364 362 362 362 360 359 357 351 337 338 342 338
332 336 347 352 355 357 352 344 346 345 348 353 356 358 357 359 361 360 362 363 364 364 364 363 359 359 356 351 344 336 337 338 337
329 332 334 343 353 357 359 361 358 352 345 349 352 354 357 359 360 361 362 362 363 362 363 362 357 351 348 344 339 332 332 336 337
328 330 329 333 341 353 359 360 362 361 355 346 347 350 353 356 358 360 360 360 361 362 362 360 352 346 341 340 337 331 330 332 339
332 332 331 330 333 343 352 358 358 357 355 358 356 360 359 356 357 358 358 360 362 363 363 355 344 340 339 336 339 330 329 331 340
332 331 332 332 331 333 349 354 357 351 349 351 354 358 360 361 360 360 361 361 361 356 348 340 337 336 336 337 338 340 323 325 336
331 331 330 331 328 331 342 353 355 353 350 350 350 351 351 352 352 351 350 351 343 340 338 337 339 336 338 339 341 330 321 322 325
330 333 332 333 331 329 336 348 353 352 353 354 351 349 348 349 346 346 346 344 341 339 339 338 339 338 336 337 336 342 322 319 321
330 330 332 333 333 331 332 342 352 355 356 355 351 345 347 348 346 344 345 343 341 339 337 337 337 336 337 335 334 338 332 328 324
330 330 332 335 335 338 338 340 352 354 356 354 350 346 345 344 342 342 337 334 337 342 343 338 339 340 338 335 335 336 326 324 329
332 329 332 334 338 339 342 342 347 351 357 354 353 345 346 343 339 339 338 338 334 309 312 311 311 312 327 338 318 310 308 307 307
329 333 332 333 335 339 343 344 348 354 356 355 352 351 348 344 341 340 340 343 343 339 323 304 303 305 307 309 312 303 302 301 301
Wind_Speed
19 20 20 20 20 17 16 17 17 16 15 15 16 16 15 12 12 9 9 9 6 5 6 6 6 8 7 7 5 5 4 3 1
19 21 21 20 20 17 16 16 17 18 17 17 16 18 13 12 12 12 10 10 8 6 7 5 7 9 9 7 6 6 6 3 4
15 17 18 17 17 18 16 17 17 16 17 17 17 16 14 13 13 13 12 10 10 10 7 8 7 8 9 7 7 8 8 7 5
11 16 18 18 17 17 17 15 14 17 16 15 15 15 13 13 13 14 12 12 11 10 9 9 8 9 9 9 10 9 8 7 6
4 10 12 14 15 15 15 16 14 15 15 15 16 14 12 14 13 13 14 13 13 11 11 10 9 9 10 11 11 10 10 9 7
5 6 8 10 13 15 16 15 14 13 13 15 14 13 15 15 15 15 15 15 14 13 13 12 11 11 11 12 12 11 10 9 8
5 3 8 10 10 12 13 12 11 12 14 14 13 14 14 14 15 15 15 13 13 14 13 13 13 13 12 11 11 11 11 10 10
9 8 2 6 9 8 7 9 10 10 11 11 12 13 13 14 14 13 12 12 13 14 14 13 13 12 12 11 10 7 10 10 10
15 17 15 13 4 4 7 10 12 12 12 12 11 12 15 12 11 12 13 13 13 12 14 13 12 13 13 12 6 5 3 6 5
16 16 16 16 14 12 7 4 8 11 11 11 12 12 12 11 11 12 13 13 13 14 14 12 13 12 11 10 12 11 6 2 4
14 18 19 17 15 14 12 10 6 2 7 10 11 11 11 11 11 12 12 12 13 13 10 10 8 10 12 14 12 16 13 20 13
11 13 10 13 18 13 11 11 10 7 7 5 6 8 9 10 11 12 12 13 12 10 9 7 9 12 15 18 15 24 22 26 10
10 12 11 19 20 17 12 9 8 9 9 7 5 3 4 6 8 10 10 10 8 6 5 7 9 13 13 13 14 24 27 14 7
5 5 11 9 8 15 12 10 6 6 5 5 5 4 4 2 2 4 4 3 2 5 8 9 11 13 18 17 17 9 8 9 7
9 11 5 11 7 20 3 7 8 4 5 1 2 4 5 5 5 4 3 6 6 7 9 10 11 9 10 9 8 7 10 16 11
11 12 12 15 15 12 1 4 8 6 2 2 1 3 5 5 5 6 6 5 6 4 5 5 4 5 4 4 4 5 7 12 12
9 11 12 12 9 9 11 7 7 4 1 3 5 4 4 5 5 7 6 5 5 4 4 4 4 4 4 4 4 5 4 6 7
7 9 11 10 10 7 6 6 1 3 2 3 5 4 3 4 5 6 6 6 4 4 3 2 4 4 5 6 6 7 9 10 9
2 5 7 8 10 9 8 5 4 4 4 3 5 5 4 3 3 3 5 5 5 9 7 6 7 3 2 3 1 12 14 12 13
11 9 5 4 6 5 3 6 4 8 6 4 5 5 6 4 5 4 4 3 4 5 5 10 10 7 5 5 4 9 12 13 15
Wind_Direction
200 209 207 210 213 210 203 202 199 197 198 193 197 198 205 207 210 220 225 226 229 219 219 218 211 206 208 205 199 193 179 182 239
194 201 209 208 210 208 207 203 200 199 199 199 198 202 200 205 210 219 222 221 218 226 223 223 211 200 205 197 194 191 174 193 185
198 205 206 204 209 208 205 208 206 202 204 203 200 201 203 208 212 215 221 222 223 224 223 219 213 201 208 188 193 190 188 176 170
210 202 199 203 203 206 206 201 198 202 204 205 198 198 200 205 213 216 220 223 227 226 222 216 216 208 201 195 201 192 195 190 175
238 234 222 200 195 196 203 201 199 202 199 201 202 196 198 207 210 217 221 222 226 222 222 217 214 209 203 201 205 193 199 198 185
314 229 223 215 194 192 196 203 202 197 195 203 203 199 203 209 211 214 221 222 223 221 222 221 212 207 205 201 203 191 195 192 187
319 220 195 207 211 203 194 192 198 200 206 208 204 205 209 214 215 219 222 222 215 219 219 219 214 211 206 199 193 185 186 190 192
53 45 47 207 205 190 194 209 210 215 227 217 207 204 206 212 214 220 225 224 218 217 220 220 213 206 202 192 182 179 177 189 185
45 50 49 43 346 212 189 201 211 207 212 219 213 216 219 213 210 212 218 221 224 224 221 217 207 204 192 184 165 156 133 156 180
32 29 35 50 44 37 49 231 232 223 216 212 213 221 229 224 215 218 219 219 218 225 223 211 204 200 179 148 106 82 39 352 240
31 36 7 24 31 19 17 26 18 164 205 207 215 225 233 231 224 222 222 223 226 233 232 223 194 157 137 125 132 116 161 233 224
24 10 11 22 354 6 359 19 26 54 100 154 200 226 235 237 231 228 224 227 229 231 228 211 159 147 147 149 159 165 202 224 211
3 14 0 11 342 330 342 14 29 39 37 57 52 352 240 222 230 233 232 238 242 237 219 146 140 148 157 177 179 200 219 176 193
324 328 360 2 286 285 332 345 2 69 27 21 7 21 30 43 177 216 233 221 192 134 126 118 130 146 156 180 223 204 150 191 184
205 235 169 230 266 249 315 342 328 329 103 343 1 32 29 42 46 50 67 98 97 119 130 142 163 178 185 181 169 146 185 190 195
223 227 213 237 252 292 16 245 272 288 96 113 95 98 89 60 59 74 78 101 114 121 134 151 185 178 136 110 159 176 198 188 168
215 216 227 244 244 228 233 245 265 291 358 94 68 37 62 84 81 81 83 93 103 105 114 126 148 149 147 134 173 182 175 181 164
228 221 230 230 243 240 215 205 190 246 164 136 110 85 81 72 89 96 91 62 51 105 109 119 170 175 166 174 204 192 170 170 165
277 246 243 236 229 219 207 176 170 352 247 143 137 166 127 114 103 109 106 115 115 61 67 71 58 56 321 157 136 147 159 158 131
322 320 304 250 246 276 199 163 170 180 196 174 184 181 160 165 172 138 125 128 147 132 94 72 58 51 58 16 153 150 152 140 142